STARLETTE 1 07646U 75010A 12136.79939564 -.00000090 00000-0 41796-4 0 9228 2 07646 49.8277 253.1374 0205506 346.0736 13.4546 13.82280467882804 LAGEOS 1 1 08820U 76039A 12136.80125343 -.00000018 00000-0 10000-3 0 2898 2 08820 109.8284 216.7482 0045080 323.6422 36.1172 6.38664668584966 AJISAI (EGS) 1 16908U 86061A 12137.23366345 -.00000083 00000-0 10000-3 0 8233 2 16908 50.0062 127.3789 0011192 46.0129 314.1625 12.44469797840098 LAGEOS 2 1 22195U 92070B 12136.45775404 -.00000009 00000-0 10000-3 0 5154 2 22195 52.6613 278.8720 0138053 97.2428 264.3850 6.47294133462504 STELLA 1 22824U 93061B 12137.19260156 -.00000050 00000-0 -28314-5 0 1689 2 22824 98.5987 76.0116 0007499 68.3808 291.8160 14.27306634970963 WESTPAC 1 25398U 98043E 12137.06691632 -.00000015 00000-0 11708-4 0 4014 2 25398 98.3684 115.8818 0001518 24.8536 335.2730 14.22711807719285 GRACE-1 1 27391U 02012A 12136.56453770 .00004838 00000-0 12365-3 0 867 2 27391 89.0174 220.0766 0011446 288.4467 71.5529 15.39165603568491 GRACE-2 1 27392U 02012B 12136.69425441 .00004835 00000-0 12353-3 0 860 2 27392 89.0157 220.0849 0012314 288.7211 71.2712 15.39166618568511 GOCE 1 34602U 09013A 12137.12997449 -.00002744 19030-5 -29676-5 0 7818 2 34602 96.6026 160.0423 0003776 349.2930 10.8270 16.05992115185354 LARES 1 38077U 12006A 12137.02817580 -.00000022 00000-0 10000-3 0 2216 2 38077 69.4905 80.6496 0010856 227.5574 132.4533 12.54929858 11630